This is the latest recevied weather packets stored in our database for station/object M0HZQ-1. If no packets are shown the sender has not sent any weather packets the latest 1 day(s).
| Time | Temp. | Humidity | Pressure | Rain* | Wind** | Luminosity | Snow |
|---|---|---|---|---|---|---|---|
| 1778096884 | 12.22° C | 50% | 1014.7 hPa | 0 mm | - | - | - |
| 1778095849 | 12.78° C | 48% | 1014.6 hPa | 0 mm | - | - | - |
| 1778094874 | 12.78° C | 47% | 1014.5 hPa | 0 mm | - | - | - |
| 1778093804 | 13.33° C | 47% | 1014.4 hPa | 0 mm | - | - | - |
| 1778091549 | 13.33° C | 46% | 1014.1 hPa | 0 mm | - | - | - |
| 1778089344 | 13.89° C | 42% | 1013.6 hPa | 0 mm | - | - | - |
| 1778087189 | 15° C | 41% | 1013.5 hPa | 0 mm | - | - | - |
| 1778086084 | 15° C | 41% | 1013.6 hPa | 0 mm | - | - | - |
| 1778085029 | 15.56° C | 40% | 1013.5 hPa | 0 mm | - | - | - |
| 1778082954 | 15.56° C | 42% | 1013.6 hPa | 0 mm | - | - | - |
| 1778081809 | 15.56° C | 42% | 1013.6 hPa | 0 mm | - | - | - |
| 1778079754 | 15.56° C | 43% | 1013.6 hPa | 0 mm | - | - | - |
| 1778077569 | 14.44° C | 46% | 1013.6 hPa | 0 mm | - | - | - |
| 1778075414 | 14.44° C | 46% | 1013.8 hPa | 0 mm | - | - | - |
| 1778074454 | 15° C | 45% | 1013.7 hPa | 0 mm | - | - | - |
| 1778073274 | 16.11° C | 43% | 1013.8 hPa | 0 mm | - | - | - |
| 1778072229 | 15.56° C | 44% | 1013.7 hPa | 0 mm | - | - | - |
| 1778071124 | 15° C | 44% | 1013.7 hPa | 0 mm | - | - | - |
| 1778068974 | 14.44° C | 45% | 1013.8 hPa | 0 mm | - | - | - |
| 1778067944 | 15° C | 44% | 1013.7 hPa | 0 mm | - | - | - |
| 1778066884 | 15.56° C | 45% | 1013.7 hPa | 0 mm | - | - | - |
| 1778065684 | 15° C | 45% | 1013.7 hPa | 0 mm | - | - | - |
| 1778064694 | 14.44° C | 45% | 1013.8 hPa | 0 mm | - | - | - |
| 1778063574 | 13.89° C | 45% | 1013.7 hPa | 0 mm | - | - | - |
| 1778062504 | 13.89° C | 46% | 1013.7 hPa | 0 mm | - | - | - |
* Rain latest hour (hover to see other rain measurements)
** Current wind speed in m/s (hover to see current wind gust speed)